Location: Rio de Janeiro
(22.9068°S, 43.1729°W)
Time: 12:50:30
(UTC-03:00)

Envisat - Pass Details

Date: 08 December 2023
Orbit: 762 x 764 km, 98.3° (Epoch: 03 March)

Event Time Altitude Azimuth Distance (km) Brightness Sun altitude
Exits shadow 03:50:13 20° 279° (W) 1,735 4.3 -14.8°
Maximum altitude 03:50:19 20° 277° (W) 1,735 4.3 -14.8°
Drops below altitude 10° 03:53:57 10° 231° (SW) 2,314 5.3 -14.1°
Sets 03:56:54 0° 214° (SW) 3,248 6.2 -13.5°
